Time,TemperatureF,DewpointF,PressureIn,WindDirection,WindDirectionDegrees,WindSpeedMPH,WindSpeedGustMPH,Humidity,HourlyPrecipIn,Conditions,Clouds,dailyrainin,SolarRadiationWatts/m^2,SoftwareType,DateUTC
2014-12-20 00:02:00,41.0,41.0,-100.00,SE,133,7.0,15.0,100,0.00,,,1.09,0.000000,,2014-12-20 08:02:00,
2014-12-20 00:11:00,41.0,41.0,-100.00,SE,133,7.0,15.0,100,0.00,,,1.09,0.000000,,2014-12-20 08:11:00,
2014-12-20 00:22:00,41.0,41.0,-100.00,SE,133,7.0,15.0,100,0.00,,,1.09,0.000000,,2014-12-20 08:22:00,
2014-12-20 00:32:00,41.0,41.0,-100.00,SE,133,7.0,15.0,100,0.00,,,1.09,0.000000,,2014-12-20 08:32:00,
2014-12-20 01:53:00,41.0,41.0,-100.00,SE,138,8.0,16.0,100,-99.99,,,1.12,0.000000,,2014-12-20 09:53:00,
2014-12-20 02:03:00,41.0,41.0,-100.00,SE,138,8.0,16.0,100,-99.99,,,1.12,0.000000,,2014-12-20 10:03:00,
2014-12-20 02:13:00,41.0,41.0,-100.00,SE,138,8.0,16.0,100,-99.99,,,1.12,0.000000,,2014-12-20 10:13:00,
2014-12-20 02:23:00,41.0,41.0,-100.00,SE,138,8.0,16.0,100,-99.99,,,1.12,0.000000,,2014-12-20 10:23:00,
2014-12-20 02:32:00,41.0,41.0,-100.00,SE,138,8.0,16.0,100,-99.99,,,1.12,0.000000,,2014-12-20 10:32:00,
2014-12-20 02:33:00,41.0,41.0,-100.00,SE,135,6.0,15.0,100,0.01,,,1.13,0.000000,,2014-12-20 10:33:00,
2014-12-20 02:53:00,41.0,41.0,-100.00,SE,135,6.0,15.0,100,0.01,,,1.13,0.000000,,2014-12-20 10:53:00,
2014-12-20 03:03:00,41.0,41.0,-100.00,SE,135,6.0,15.0,100,0.01,,,1.13,0.000000,,2014-12-20 11:03:00,
2014-12-20 03:12:00,41.0,41.0,-100.00,SE,135,6.0,15.0,100,0.01,,,1.13,0.000000,,2014-12-20 11:12:00,
2014-12-20 03:22:00,41.0,41.0,-100.00,SE,135,6.0,15.0,100,0.01,,,1.13,0.000000,,2014-12-20 11:22:00,
2014-12-20 03:52:00,41.0,41.0,-100.00,SE,138,4.0,15.0,100,0.04,,,1.17,0.000000,,2014-12-20 11:52:00,
2014-12-20 04:05:00,41.0,41.0,-100.00,SE,138,4.0,15.0,100,0.04,,,1.17,0.000000,,2014-12-20 12:05:00,
2014-12-20 04:13:00,41.0,41.0,-100.00,SE,138,4.0,15.0,100,0.04,,,1.17,0.000000,,2014-12-20 12:13:00,
2014-12-20 04:22:00,41.0,41.0,-100.00,SE,138,4.0,15.0,100,0.04,,,1.17,0.000000,,2014-12-20 12:22:00,
2014-12-20 04:32:00,41.0,41.0,-100.00,SE,138,4.0,15.0,100,0.04,,,1.17,0.000000,,2014-12-20 12:32:00,
2014-12-20 04:52:00,41.0,41.0,-100.00,SE,130,4.0,10.0,100,0.04,,,1.21,0.000000,,2014-12-20 12:52:00,
2014-12-20 05:02:00,41.0,41.0,-100.00,SE,130,4.0,10.0,100,0.04,,,1.21,0.000000,,2014-12-20 13:02:00,
2014-12-20 05:11:00,41.0,41.0,-100.00,SE,130,4.0,10.0,100,0.04,,,1.21,0.000000,,2014-12-20 13:11:00,
2014-12-20 05:22:00,41.0,41.0,-100.00,SE,130,4.0,10.0,100,0.04,,,1.21,0.000000,,2014-12-20 13:22:00,
2014-12-20 05:32:00,41.0,41.0,-100.00,SE,130,4.0,10.0,100,0.04,,,1.21,0.000000,,2014-12-20 13:32:00,
2014-12-20 05:52:00,40.0,40.0,-100.00,SE,131,4.0,10.0,100,0.01,,,1.21,0.000000,,2014-12-20 13:52:00,
2014-12-20 06:02:00,40.0,40.0,-100.00,SE,131,4.0,10.0,100,0.01,,,1.21,0.000000,,2014-12-20 14:02:00,
2014-12-20 06:12:00,40.0,40.0,-100.00,SE,131,4.0,10.0,100,0.01,,,1.21,0.000000,,2014-12-20 14:12:00,
2014-12-20 06:22:00,40.0,40.0,-100.00,SE,131,4.0,10.0,100,0.01,,,1.21,0.000000,,2014-12-20 14:22:00,
2014-12-20 06:32:00,40.0,40.0,-100.00,SE,131,4.0,10.0,100,0.01,,,1.21,0.000000,,2014-12-20 14:32:00,
2014-12-20 06:33:00,40.0,40.0,-100.00,SE,129,2.0,7.0,100,0.03,,,1.24,0.000000,,2014-12-20 14:33:00,
2014-12-20 06:52:00,40.0,40.0,-100.00,SE,129,2.0,7.0,100,0.03,,,1.24,0.000000,,2014-12-20 14:52:00,
2014-12-20 07:02:00,40.0,40.0,-100.00,SE,129,2.0,7.0,100,0.03,,,1.24,0.000000,,2014-12-20 15:02:00,
2014-12-20 07:11:00,40.0,40.0,-100.00,SE,129,2.0,7.0,100,0.03,,,1.24,0.000000,,2014-12-20 15:11:00,
2014-12-20 07:22:00,40.0,40.0,-100.00,SE,129,2.0,7.0,100,0.03,,,1.24,0.000000,,2014-12-20 15:22:00,
2014-12-20 07:33:00,40.0,40.0,-100.00,SE,138,6.0,9.0,100,0.00,,,1.24,0.000000,,2014-12-20 15:33:00,
2014-12-20 08:00:00,40.0,-99.9,-100.00,SE,138,6.0,9.0,100,0.00,,,1.24,0.000000,,2014-12-20 16:00:00,
2014-12-20 08:10:00,40.0,-99.9,-100.00,SE,138,6.0,9.0,100,0.00,,,1.24,0.000000,,2014-12-20 16:10:00,
2014-12-20 08:20:00,40.0,40.0,-100.00,SE,138,6.0,9.0,100,0.00,,,1.24,0.000000,,2014-12-20 16:20:00,
2014-12-20 08:30:00,-999.0,-99.9,-100.00,SE,138,6.0,9.0,100,0.00,,,1.24,0.000000,,2014-12-20 16:30:00,
2014-12-20 08:33:00,40.0,40.0,-100.00,SE,127,4.0,9.0,100,0.01,,,1.19,12.000000,,2014-12-20 16:33:00,
2014-12-20 09:00:00,-999.0,-99.9,-100.00,SE,127,4.0,9.0,100,0.01,,,1.19,12.000000,,2014-12-20 17:00:00,
2014-12-20 09:10:00,-999.0,-99.9,-100.00,SE,127,4.0,9.0,-999,0.01,,,1.19,12.000000,,2014-12-20 17:10:00,
2014-12-20 09:20:00,-999.0,-99.9,-100.00,SE,127,4.0,9.0,100,0.01,,,1.19,12.000000,,2014-12-20 17:20:00,
2014-12-20 09:30:00,40.0,40.0,-100.00,SE,127,4.0,9.0,100,0.01,,,1.19,12.000000,,2014-12-20 17:30:00,
2014-12-20 09:53:00,40.0,40.0,-100.00,SE,139,4.0,9.0,100,0.01,,,0.92,19.000000,,2014-12-20 17:53:00,
2014-12-20 10:03:00,40.0,40.0,-100.00,SE,139,4.0,9.0,100,0.01,,,0.92,19.000000,,2014-12-20 18:03:00,
2014-12-20 10:12:00,40.0,40.0,-100.00,SE,139,4.0,9.0,100,0.01,,,0.92,19.000000,,2014-12-20 18:12:00,
2014-12-20 10:23:00,40.0,40.0,-100.00,SE,139,4.0,9.0,100,0.01,,,0.92,19.000000,,2014-12-20 18:23:00,
2014-12-20 10:32:00,40.0,40.0,-100.00,SE,139,4.0,9.0,100,0.01,,,0.92,19.000000,,2014-12-20 18:32:00,
2014-12-20 10:52:00,40.0,40.0,-100.00,SE,139,6.0,11.0,100,0.02,,,0.65,47.000000,,2014-12-20 18:52:00,